TimeEDT,TemperatureF,Dew PointF,Humidity,Sea Level PressureIn,VisibilityMPH,Wind Direction,Wind SpeedMPH,Gust SpeedMPH,PrecipitationIn,Events,Conditions,WindDirDegrees,DateUTC
12:15 AM,71.6,57.2,60,30.00,10.0,SSW,3.5,-,N/A,,Clear,200,2013-05-29 04:15:00
12:35 AM,71.6,57.2,60,30.01,10.0,SSW,3.5,-,N/A,,Clear,200,2013-05-29 04:35:00
12:55 AM,71.6,57.2,60,30.01,10.0,South,5.8,-,N/A,,Clear,190,2013-05-29 04:55:00
1:15 AM,69.8,57.2,64,30.01,10.0,South,8.1,-,N/A,,Clear,190,2013-05-29 05:15:00
1:35 AM,71.6,57.2,60,30.02,10.0,South,8.1,-,N/A,,Clear,190,2013-05-29 05:35:00
1:55 AM,69.8,57.2,64,30.03,10.0,South,6.9,-,N/A,,Clear,170,2013-05-29 05:55:00
2:15 AM,69.8,57.2,64,30.02,10.0,South,9.2,-,N/A,,Clear,170,2013-05-29 06:15:00
2:55 AM,69.8,57.2,64,30.03,10.0,SSE,4.6,-,N/A,,Clear,150,2013-05-29 06:55:00
3:15 AM,69.8,57.2,64,30.04,10.0,SSE,4.6,-,N/A,,Clear,150,2013-05-29 07:15:00
3:35 AM,69.8,57.2,64,30.04,10.0,SSE,5.8,-,N/A,,Clear,160,2013-05-29 07:35:00
3:55 AM,69.8,57.2,64,30.04,10.0,SSE,5.8,-,N/A,,Clear,160,2013-05-29 07:55:00
4:15 AM,68.0,57.2,68,30.04,7.0,SSE,5.8,-,N/A,,Clear,160,2013-05-29 08:15:00
4:35 AM,68.0,55.4,64,30.04,10.0,SSE,5.8,-,N/A,,Clear,150,2013-05-29 08:35:00
4:55 AM,66.2,55.4,68,30.04,10.0,SSE,5.8,-,N/A,,Clear,160,2013-05-29 08:55:00
5:15 AM,66.2,55.4,68,30.05,10.0,SSE,4.6,-,N/A,,Clear,160,2013-05-29 09:15:00
5:35 AM,66.2,55.4,68,30.06,10.0,SSE,4.6,-,N/A,,Clear,160,2013-05-29 09:35:00
5:55 AM,66.2,55.4,68,30.05,10.0,South,9.2,-,N/A,,Clear,170,2013-05-29 09:55:00
6:15 AM,66.2,57.2,73,30.05,10.0,South,12.7,-,N/A,,Clear,170,2013-05-29 10:15:00
6:35 AM,66.2,57.2,73,30.06,10.0,South,11.5,16.1,N/A,,Clear,170,2013-05-29 10:35:00
6:55 AM,66.2,57.2,73,30.07,10.0,South,5.8,-,N/A,,Clear,170,2013-05-29 10:55:00
7:15 AM,66.2,57.2,73,30.08,10.0,South,6.9,-,N/A,,Clear,170,2013-05-29 11:15:00
7:35 AM,66.2,57.2,73,30.09,10.0,South,6.9,-,N/A,,Clear,180,2013-05-29 11:35:00
7:55 AM,66.2,59.0,78,30.09,10.0,South,4.6,-,N/A,,Clear,170,2013-05-29 11:55:00
8:15 AM,68.0,59.0,73,30.09,10.0,South,6.9,-,N/A,,Clear,180,2013-05-29 12:15:00
8:55 AM,71.6,60.8,69,30.08,10.0,South,11.5,-,N/A,,Clear,180,2013-05-29 12:55:00
9:15 AM,73.4,60.8,65,30.09,10.0,South,11.5,16.1,N/A,,Clear,190,2013-05-29 13:15:00
9:35 AM,75.2,60.8,61,30.09,10.0,South,13.8,18.4,N/A,,Clear,190,2013-05-29 13:35:00
9:55 AM,75.2,60.8,61,30.09,10.0,South,11.5,19.6,N/A,,Clear,190,2013-05-29 13:55:00
10:15 AM,77.0,62.6,61,30.09,10.0,SSW,13.8,-,N/A,,Clear,210,2013-05-29 14:15:00
10:35 AM,78.8,62.6,57,30.08,10.0,SSW,12.7,18.4,N/A,,Clear,200,2013-05-29 14:35:00
10:55 AM,78.8,60.8,54,30.08,10.0,SSW,10.4,17.3,N/A,,Clear,200,2013-05-29 14:55:00
11:15 AM,78.8,60.8,54,30.08,10.0,SSW,16.1,-,N/A,,Clear,200,2013-05-29 15:15:00
11:35 AM,80.6,60.8,51,30.08,10.0,SSW,15.0,-,N/A,,Clear,200,2013-05-29 15:35:00
11:55 AM,80.6,60.8,51,30.08,10.0,SSW,13.8,18.4,N/A,,Clear,210,2013-05-29 15:55:00
12:15 PM,82.4,60.8,48,30.08,10.0,SSW,11.5,-,N/A,,Clear,200,2013-05-29 16:15:00
1:15 PM,84.2,59.0,42,30.07,10.0,SSW,18.4,23.0,N/A,,Clear,200,2013-05-29 17:15:00
1:35 PM,84.2,60.8,45,30.06,10.0,SSW,12.7,23.0,N/A,,Clear,200,2013-05-29 17:35:00
1:55 PM,84.2,62.6,48,30.06,10.0,South,9.2,21.9,N/A,,Partly Cloudy,190,2013-05-29 17:55:00
2:15 PM,84.2,62.6,48,30.06,10.0,SSW,16.1,25.3,N/A,,Scattered Clouds,200,2013-05-29 18:15:00
2:35 PM,84.2,62.6,48,30.05,10.0,South,13.8,20.7,N/A,,Scattered Clouds,190,2013-05-29 18:35:00
2:55 PM,84.2,62.6,48,30.05,10.0,SSW,13.8,20.7,N/A,,Scattered Clouds,210,2013-05-29 18:55:00
3:35 PM,84.2,62.6,48,30.04,10.0,South,13.8,-,N/A,,Scattered Clouds,180,2013-05-29 19:35:00
3:55 PM,87.8,62.6,43,30.04,10.0,SSW,12.7,23.0,N/A,,Clear,200,2013-05-29 19:55:00
4:15 PM,87.8,62.6,43,30.03,10.0,SSW,16.1,23.0,N/A,,Partly Cloudy,210,2013-05-29 20:15:00
4:35 PM,87.8,60.8,40,30.02,10.0,SSW,17.3,23.0,N/A,,Clear,210,2013-05-29 20:35:00
4:55 PM,87.8,62.6,43,30.01,10.0,SW,16.1,21.9,N/A,,Partly Cloudy,220,2013-05-29 20:55:00
5:35 PM,86.0,62.6,45,30.01,10.0,South,13.8,23.0,N/A,,Partly Cloudy,190,2013-05-29 21:35:00
5:55 PM,86.0,60.8,43,30.01,10.0,SSW,16.1,25.3,N/A,,Partly Cloudy,200,2013-05-29 21:55:00
6:35 PM,84.2,62.6,48,30.00,10.0,SSE,11.5,19.6,N/A,,Scattered Clouds,160,2013-05-29 22:35:00
6:55 PM,84.2,62.6,48,30.00,10.0,South,13.8,19.6,N/A,,Partly Cloudy,170,2013-05-29 22:55:00
7:16 PM,84.2,62.6,48,30.00,10.0,South,11.5,-,N/A,,Clear,180,2013-05-29 23:16:00
7:35 PM,84.2,62.6,48,30.00,10.0,South,12.7,19.6,N/A,,Clear,170,2013-05-29 23:35:00
7:55 PM,82.4,62.6,51,30.00,10.0,South,8.1,-,N/A,,Clear,170,2013-05-29 23:55:00
8:15 PM,82.4,62.6,51,29.99,10.0,South,8.1,-,N/A,,Clear,170,2013-05-30 00:15:00
8:35 PM,80.6,62.6,54,29.99,10.0,South,6.9,-,N/A,,Clear,170,2013-05-30 00:35:00
8:56 PM,80.6,60.8,51,29.99,10.0,SSE,8.1,-,N/A,,Clear,150,2013-05-30 00:56:00
9:15 PM,78.8,60.8,54,29.99,10.0,SE,6.9,-,N/A,,Clear,140,2013-05-30 01:15:00
9:35 PM,77.0,60.8,57,29.99,10.0,SE,5.8,-,N/A,,Clear,140,2013-05-30 01:35:00
9:55 PM,75.2,60.8,61,30.00,10.0,SSE,3.5,-,N/A,,Clear,150,2013-05-30 01:55:00
10:15 PM,75.2,60.8,61,30.00,10.0,SSE,5.8,-,N/A,,Clear,150,2013-05-30 02:15:00
10:35 PM,77.0,60.8,57,30.01,10.0,SSE,6.9,-,N/A,,Clear,150,2013-05-30 02:35:00
10:55 PM,77.0,60.8,57,30.01,10.0,SSE,5.8,-,N/A,,Clear,150,2013-05-30 02:55:00
11:15 PM,77.0,62.6,61,30.01,10.0,SSE,8.1,-,N/A,,Clear,150,2013-05-30 03:15:00
11:35 PM,75.2,62.6,65,30.02,10.0,SSE,5.8,-,N/A,,Clear,150,2013-05-30 03:35:00